,,,PA_Meas_PMT16A,,PR_Meas_QMR101_102,,RH_Meas_QMH101,,SR_Meas_QMS101,,TA_Meas_QMH101,,GenWind,,GenWind,
date,time,status,PA,status,PR,status,RH,status,SR,status,TA,status,DirAvg,status,SpdAvg,
2011-01-22, 00:00:05,VALID,1003.88,VALID,0,INVALID,112.785,VALID,0,VALID,25.376,VALID,22,VALID,1.02852,
2011-01-22, 00:01:05,VALID,1003.84,VALID,0,INVALID,114.128,VALID,0,VALID,25.2962,VALID,358,VALID,1.46172,
2011-01-22, 00:02:05,VALID,1003.84,VALID,0,INVALID,115.692,VALID,0,VALID,25.2962,VALID,7,VALID,1.33438,
2011-01-22, 00:03:05,VALID,1003.83,VALID,0,INVALID,116.394,VALID,0,VALID,25.3176,VALID,9,VALID,1.03008,
2011-01-22, 00:04:05,VALID,1003.81,VALID,0,INVALID,120.033,VALID,0,VALID,25.3,VALID,11,VALID,0.919141,
2011-01-22, 00:05:05,VALID,1003.77,VALID,0,INVALID,122.894,VALID,0,VALID,25.2397,VALID,71,VALID,0.554688,
2011-01-22, 00:06:05,VALID,1003.77,VALID,0,INVALID,118.896,VALID,0,VALID,25.2202,VALID,352,VALID,0.447656,
2011-01-22, 00:07:05,VALID,1003.75,VALID,0,INVALID,118.835,VALID,0,VALID,25.2397,VALID,355,VALID,0.655078,
2011-01-22, 00:08:05,VALID,1003.76,VALID,0,INVALID,119.186,VALID,0,VALID,25.2397,VALID,353,VALID,1.05039,
2011-01-22, 00:09:05,VALID,1003.78,VALID,0,INVALID,115.646,VALID,0,VALID,25.2416,VALID,337,VALID,0.962891,
2011-01-22, 00:10:05,VALID,1003.75,VALID,0,INVALID,115.837,VALID,0,VALID,25.2397,VALID,325,VALID,0.314844,
2011-01-22, 00:11:05,VALID,1003.76,VALID,0,INVALID,115.059,VALID,0,VALID,25.2202,VALID,329,VALID,0.464453,
2011-01-22, 00:12:05,VALID,1003.79,VALID,0,INVALID,114.403,VALID,0,VALID,25.2202,VALID,331,VALID,0.446875,
2011-01-22, 00:13:05,VALID,1003.78,VALID,0,INVALID,117.485,VALID,0,VALID,25.2202,VALID,331,VALID,0.299609,
2011-01-22, 00:14:05,VALID,1003.79,VALID,0,INVALID,117.05,VALID,0,VALID,25.2221,VALID,331,VALID,0.188672,
2011-01-22, 00:15:05,VALID,1003.77,VALID,0,INVALID,117.469,VALID,0,VALID,25.1813,VALID,331,VALID,0.177344,
2011-01-22, 00:16:05,VALID,1003.75,VALID,0,INVALID,115.768,VALID,0,VALID,25.1832,VALID,344,VALID,0.460938,
2011-01-22, 00:17:05,VALID,1003.73,VALID,0,INVALID,112.351,VALID,0,VALID,25.1618,VALID,4,VALID,0.433203,
2011-01-22, 00:18:05,VALID,1003.71,VALID,0,VALID,104,VALID,0,VALID,25.1423,VALID,346,VALID,0.651172,
2011-01-22, 00:19:05,VALID,1003.71,VALID,0,INVALID,112.175,VALID,0,VALID,25.1637,VALID,349,VALID,0.86875,
2011-01-22, 00:20:05,VALID,1003.68,VALID,0,INVALID,117.073,VALID,0,VALID,25.1423,VALID,4,VALID,1.13203,
2011-01-22, 00:21:05,VALID,1003.65,VALID,0,INVALID,110.642,VALID,0,VALID,25.0644,VALID,20,VALID,1.29375,
2011-01-22, 00:22:04,VALID,1003.62,VALID,0,VALID,102.822,VALID,0,VALID,25.1637,VALID,16,VALID,1.18281,
2011-01-22, 00:23:04,VALID,1003.59,VALID,0,VALID,99.6942,VALID,0,VALID,25.2592,VALID,44,VALID,1.76484,
2011-01-22, 00:24:04,VALID,1003.6,VALID,0,VALID,99.1526,VALID,0,VALID,25.3565,VALID,26,VALID,1.54883,
2011-01-22, 00:25:04,VALID,1003.59,VALID,0,VALID,97.4437,VALID,0,VALID,25.4169,VALID,28,VALID,0.844922,
2011-01-22, 00:26:04,VALID,1003.53,VALID,0,VALID,93.6445,VALID,0,VALID,25.3565,VALID,33,VALID,1.11133,
2011-01-22, 00:27:04,VALID,1003.51,VALID,0,VALID,92.5002,VALID,0,VALID,25.3565,VALID,24,VALID,1.51211,
2011-01-22, 00:28:04,VALID,1003.49,VALID,0,VALID,90.3183,VALID,0,VALID,25.3779,VALID,23,VALID,0.616406,
2011-01-22, 00:29:04,VALID,1003.47,VALID,0,VALID,89.9369,VALID,0,VALID,25.339,VALID,29,VALID,1.19102,
2011-01-22, 00:30:04,VALID,1003.44,VALID,0,VALID,90.5319,VALID,0,VALID,25.2981,VALID,25,VALID,0.705078,
2011-01-22, 00:31:04,VALID,1003.42,VALID,0,VALID,89.8072,VALID,0,VALID,25.3176,VALID,14,VALID,1.17344,
2011-01-22, 00:32:04,VALID,1003.4,VALID,0,VALID,90.2344,VALID,0,VALID,25.3176,VALID,36,VALID,0.613672,
2011-01-22, 00:33:04,VALID,1003.41,VALID,0,VALID,90.4556,VALID,0,VALID,25.339,VALID,20,VALID,0.530078,
2011-01-22, 00:34:04,VALID,1003.41,VALID,0,VALID,91.3101,VALID,0,VALID,25.2786,VALID,17,VALID,0.749609,
2011-01-22, 00:35:04,VALID,1003.38,VALID,0,VALID,91.0278,VALID,0,VALID,25.2397,VALID,352,VALID,1.26797,
2011-01-22, 00:36:04,VALID,1003.35,VALID,0,VALID,93.1334,VALID,0,VALID,25.2397,VALID,313,VALID,0.465625,
2011-01-22, 00:37:04,VALID,1003.31,VALID,0,VALID,94.5752,VALID,0,VALID,25.263,VALID,359,VALID,0.88125,
2011-01-22, 00:38:04,VALID,1003.26,VALID,0,VALID,94.3921,VALID,0,VALID,25.2027,VALID,351,VALID,0.673047,
2011-01-22, 00:39:04,VALID,1003.22,VALID,0,VALID,94.8346,VALID,0,VALID,25.1832,VALID,6,VALID,0.364453,
2011-01-22, 00:40:04,VALID,1003.2,VALID,0,VALID,94.8117,VALID,0,VALID,25.1656,VALID,6,VALID,0.270703,
2011-01-22, 00:41:04,VALID,1003.21,VALID,0,VALID,92.8053,VALID,0,VALID,25.0839,VALID,12,VALID,0.601953,
2011-01-22, 00:42:04,VALID,1003.22,VALID,0,VALID,92.8511,VALID,0,VALID,25.1248,VALID,37,VALID,0.478906,
2011-01-22, 00:43:04,VALID,1003.18,VALID,0,VALID,92.607,VALID,0,VALID,25.0839,VALID,10,VALID,0.465625,
2011-01-22, 00:44:04,VALID,1003.19,VALID,0,VALID,92.9808,VALID,0,VALID,25.0644,VALID,12,VALID,0.378516,
2011-01-22, 00:45:04,VALID,1003.18,VALID,0,VALID,94.087,VALID,0,VALID,25.0839,VALID,320,VALID,0.318359,
2011-01-22, 00:46:04,VALID,1003.17,VALID,0,VALID,95.3229,VALID,0,VALID,25.1053,VALID,320,VALID,0.0222656,
2011-01-22, 00:47:04,VALID,1003.19,VALID,0,VALID,95.834,VALID,0,VALID,25.0858,VALID,344,VALID,0.64375,
2011-01-22, 00:48:04,VALID,1003.22,VALID,0,VALID,96.7723,VALID,0,VALID,25.0663,VALID,344,VALID,0.667969,
2011-01-22, 00:49:04,VALID,1003.24,VALID,0,VALID,97.7946,VALID,0,VALID,25.0469,VALID,354,VALID,1.06562,
2011-01-22, 00:50:04,VALID,1003.23,VALID,0,VALID,97.1691,VALID,0,VALID,24.9495,VALID,359,VALID,0.797656,
2011-01-22, 00:51:04,VALID,1003.25,VALID,0,VALID,98.7559,VALID,0,VALID,24.8892,VALID,6,VALID,1.3668,
2011-01-22, 00:52:04,VALID,1003.29,VALID,0,VALID,100.716,VALID,0,VALID,24.9709,VALID,2,VALID,1.75781,
2011-01-22, 00:53:04,VALID,1003.29,VALID,0,VALID,100.449,VALID,0,VALID,24.9866,VALID,350,VALID,1.4082,
2011-01-22, 00:54:04,VALID,1003.23,VALID,0,VALID,100.541,VALID,0,VALID,25.0255,VALID,356,VALID,1.21406,
2011-01-22, 00:55:04,VALID,1003.24,VALID,0,VALID,100.373,VALID,0,VALID,25.0644,VALID,346,VALID,1.34102,
2011-01-22, 00:56:04,VALID,1003.2,VALID,0,VALID,100.785,VALID,0,VALID,25.0644,VALID,344,VALID,0.869531,
2011-01-22, 00:57:04,VALID,1003.16,VALID,0,VALID,100.457,VALID,0,VALID,25.0839,VALID,359,VALID,1.77578,
2011-01-22, 00:58:04,VALID,1003.17,VALID,0,VALID,100.808,VALID,0,VALID,25.1229,VALID,8,VALID,0.915625,
2011-01-22, 00:59:04,VALID,1003.13,VALID,0,VALID,100.297,VALID,0,VALID,25.1442,VALID,354,VALID,0.695313,
2011-01-22, 01:00:04,VALID,1003.11,VALID,0,VALID,100.503,VALID,0,VALID,25.1248,VALID,344,VALID,1.11797,
2011-01-22, 01:01:04,VALID,1003.06,VALID,0,VALID,101.693,VALID,0,VALID,25.1053,VALID,352,VALID,1.20898,
2011-01-22, 01:02:04,VALID,1003.08,VALID,0,VALID,101.914,VALID,0,VALID,25.1034,VALID,358,VALID,1.27305,
2011-01-22, 01:03:04,VALID,1003.03,VALID,0,VALID,101.449,VALID,0,VALID,25.1442,VALID,351,VALID,1.21133,
2011-01-22, 01:04:04,VALID,1003.03,VALID,0,VALID,102.227,VALID,0,VALID,25.1423,VALID,353,VALID,0.894531,
2011-01-22, 01:05:04,VALID,1003.02,VALID,0,VALID,102.395,VALID,0,VALID,25.1423,VALID,354,VALID,0.927344,
2011-01-22, 01:06:04,VALID,1003.03,VALID,0,VALID,102.952,VALID,0,VALID,25.1637,VALID,349,VALID,0.559766,
2011-01-22, 01:07:04,VALID,1003.02,VALID,0,VALID,103.532,VALID,0,VALID,25.1442,VALID,340,VALID,0.705859,
2011-01-22, 01:08:04,VALID,1003.01,VALID,0,VALID,104,VALID,0,VALID,25.1248,VALID,340,VALID,0.482031,
2011-01-22, 01:09:04,VALID,1002.98,VALID,0,VALID,104,VALID,0,VALID,25.1053,VALID,345,VALID,0.661328,
2011-01-22, 01:10:04,VALID,1002.95,VALID,0,VALID,104,VALID,0,VALID,25.0858,VALID,344,VALID,0.407813,
2011-01-22, 01:11:04,VALID,1002.94,VALID,0,INVALID,111.755,VALID,0,VALID,25.0663,VALID,342,VALID,0.473437,
2011-01-22, 01:12:04,VALID,1002.92,VALID,0,INVALID,118.232,VALID,0,VALID,25.0274,VALID,342,VALID,0.363672,
2011-01-22, 01:13:04,VALID,1002.9,VALID,0,INVALID,126.426,VALID,0,VALID,24.969,VALID,342,VALID,0.400781,
2011-01-22, 01:14:04,VALID,1002.88,VALID,0,INVALID,137.251,VALID,0,VALID,24.9087,VALID,342,VALID,0.55,
2011-01-22, 01:15:04,VALID,1002.91,VALID,0,INVALID,157.544,VALID,0,VALID,24.8697,VALID,343,VALID,0.472656,
2011-01-22, 01:16:04,VALID,1002.94,VALID,0,INVALID,163.609,VALID,0,VALID,24.8503,VALID,355,VALID,0.830078,
2011-01-22, 01:17:04,VALID,1002.98,VALID,0,INVALID,163.624,VALID,0,VALID,24.7529,VALID,350,VALID,1.19531,
2011-01-22, 01:18:04,VALID,1003,VALID,0,INVALID,163.693,VALID,0,VALID,24.6964,VALID,354,VALID,0.842969,
2011-01-22, 01:19:04,VALID,1003.02,VALID,0,INVALID,163.662,VALID,0,VALID,24.6166,VALID,343,VALID,0.518359,
2011-01-22, 01:20:04,VALID,1003.05,VALID,0,INVALID,163.685,VALID,0,VALID,24.599,VALID,338,VALID,0.712891,
2011-01-22, 01:21:04,VALID,1003.02,VALID,0,INVALID,163.685,VALID,0,VALID,24.6185,VALID,354,VALID,0.482812,
2011-01-22, 01:22:04,VALID,1003.06,VALID,0,INVALID,163.67,VALID,0,VALID,24.5972,VALID,354,VALID,0.548828,
2011-01-22, 01:23:04,VALID,1003.07,VALID,0,INVALID,163.647,VALID,0,VALID,24.5972,VALID,354,VALID,0.156641,
2011-01-22, 01:24:04,VALID,1003.07,VALID,0,INVALID,163.678,VALID,0,VALID,24.5777,VALID,354,VALID,0.251563,
2011-01-22, 01:25:04,VALID,1003.05,VALID,0,INVALID,163.639,VALID,0,VALID,24.5777,VALID,349,VALID,0.401172,
2011-01-22, 01:26:04,VALID,1003.04,VALID,0,INVALID,163.655,VALID,0,VALID,24.6185,VALID,349,VALID,0.362891,
2011-01-22, 01:27:04,VALID,1003.01,VALID,0,INVALID,163.662,VALID,0,VALID,24.599,VALID,334,VALID,0.530078,
2011-01-22, 01:28:04,VALID,1003.01,VALID,0,INVALID,163.662,VALID,0,VALID,24.6185,VALID,341,VALID,0.633594,
2011-01-22, 01:29:04,VALID,1002.99,VALID,0,INVALID,163.655,VALID,0,VALID,24.638,VALID,334,VALID,0.667969,
2011-01-22, 01:30:04,VALID,1002.99,VALID,0,INVALID,163.662,VALID,0,VALID,24.6342,VALID,342,VALID,0.532422,
2011-01-22, 01:31:04,VALID,1002.98,VALID,0,INVALID,163.655,VALID,0,VALID,24.6166,VALID,342,VALID,0.625391,
2011-01-22, 01:32:04,VALID,1002.95,VALID,0,INVALID,163.67,VALID,0,VALID,24.5777,VALID,344,VALID,0.455859,
2011-01-22, 01:33:04,VALID,1002.97,VALID,0,INVALID,163.662,VALID,0,VALID,24.5388,VALID,345,VALID,0.542578,
2011-01-22, 01:34:04,VALID,1002.98,VALID,0,INVALID,163.67,VALID,0,VALID,24.5406,VALID,335,VALID,0.688281,
2011-01-22, 01:35:04,VALID,1003.02,VALID,0,INVALID,163.678,VALID,0,VALID,24.4804,VALID,343,VALID,0.764063,
2011-01-22, 01:36:04,VALID,1003,VALID,0,INVALID,163.647,VALID,0,VALID,24.4998,VALID,353,VALID,0.875781,
2011-01-22, 01:37:04,VALID,1002.96,VALID,0,INVALID,163.662,VALID,0,VALID,24.5017,VALID,340,VALID,1.07891,
2011-01-22, 01:38:04,VALID,1002.97,VALID,0,INVALID,145.376,VALID,0,VALID,24.5796,VALID,351,VALID,1.26719,
2011-01-22, 01:39:04,VALID,1002.95,VALID,0,INVALID,113.708,VALID,0,VALID,24.6945,VALID,358,VALID,1.81797,
2011-01-22, 01:40:04,VALID,1002.93,VALID,0,VALID,104,VALID,0,VALID,24.8697,VALID,360,VALID,1.71367,
2011-01-22, 01:41:04,VALID,1002.91,VALID,0,VALID,101.708,VALID,0,VALID,25.1053,VALID,354,VALID,1.55234,
2011-01-22, 01:42:04,VALID,1002.94,VALID,0,VALID,100.495,VALID,0,VALID,25.1813,VALID,353,VALID,1.09609,
2011-01-22, 01:43:04,VALID,1002.91,VALID,0,VALID,97.9777,VALID,0,VALID,25.2416,VALID,2,VALID,1.21797,
2011-01-22, 01:44:04,VALID,1002.89,VALID,0,VALID,96.5435,VALID,0,VALID,25.2592,VALID,359,VALID,1.50664,
2011-01-22, 01:45:04,VALID,1002.9,VALID,0,VALID,95.5288,VALID,0,VALID,25.339,VALID,13,VALID,1.41914,
2011-01-22, 01:46:04,VALID,1002.89,VALID,0,VALID,93.8276,VALID,0,VALID,25.3565,VALID,10,VALID,1.33789,
2011-01-22, 01:47:04,VALID,1002.88,VALID,0,VALID,93.5301,VALID,0,VALID,25.4149,VALID,350,VALID,1.15078,
2011-01-22, 01:48:04,VALID,1002.87,VALID,0,VALID,92.4773,VALID,0,VALID,25.4169,VALID,8,VALID,1.56016,
2011-01-22, 01:49:04,VALID,1002.88,VALID,0,VALID,91.3482,VALID,0,VALID,25.4539,VALID,354,VALID,1.52773,
2011-01-22, 01:50:04,VALID,1002.86,VALID,0,VALID,91.7831,VALID,0,VALID,25.5142,VALID,357,VALID,1.20859,
2011-01-22, 01:51:04,VALID,1002.87,VALID,0,VALID,89.6851,VALID,0,VALID,25.5337,VALID,352,VALID,1.5707,
2011-01-22, 01:52:04,VALID,1002.88,VALID,0,VALID,88.9985,VALID,0,VALID,25.6116,VALID,2,VALID,1.41367,
2011-01-22, 01:53:04,VALID,1002.85,VALID,0,VALID,89.296,VALID,0,VALID,25.672,VALID,9,VALID,1.26797,
2011-01-22, 01:54:04,VALID,1002.81,VALID,0,VALID,88.6323,VALID,0,VALID,25.6506,VALID,354,VALID,0.807813,
2011-01-22, 01:55:04,VALID,1002.81,VALID,0,VALID,89.4944,VALID,0,VALID,25.6681,VALID,355,VALID,0.695313,
2011-01-22, 01:56:04,VALID,1002.76,VALID,0,VALID,89.8987,VALID,0,VALID,25.67,VALID,346,VALID,0.629687,
2011-01-22, 01:57:04,VALID,1002.76,VALID,0,VALID,90.2573,VALID,0,VALID,25.633,VALID,345,VALID,0.650781,
2011-01-22, 01:58:04,VALID,1002.74,VALID,0,VALID,90.7303,VALID,0,VALID,25.5532,VALID,347,VALID,0.859766,
2011-01-22, 01:59:04,VALID,1002.72,VALID,0,VALID,91.8059,VALID,0,VALID,25.4948,VALID,349,VALID,0.478125,
2011-01-22, 02:00:04,VALID,1002.69,VALID,0,VALID,91.6534,VALID,0,VALID,25.4363,VALID,346,VALID,0.569531,
2011-01-22, 02:01:04,VALID,1002.7,VALID,0,VALID,92.7596,VALID,0,VALID,25.3779,VALID,346,VALID,0.496875,
2011-01-22, 02:02:04,VALID,1002.66,VALID,0,VALID,94.2243,VALID,0,VALID,25.2981,VALID,346,VALID,0.567578,
2011-01-22, 02:03:04,VALID,1002.64,VALID,0,VALID,95.0635,VALID,0,VALID,25.2027,VALID,346,VALID,0.497266,
2011-01-22, 02:04:04,VALID,1002.66,VALID,0,VALID,95.7424,VALID,0,VALID,25.1034,VALID,346,VALID,0.502344,
2011-01-22, 02:05:04,VALID,1002.64,VALID,0,VALID,96.6655,VALID,0,VALID,25.0663,VALID,346,VALID,0.597656,
2011-01-22, 02:06:04,VALID,1002.6,VALID,0,VALID,96.7037,VALID,0,VALID,25.0274,VALID,346,VALID,0.530469,
2011-01-22, 02:07:04,VALID,1002.61,VALID,0,VALID,97.3293,VALID,0,VALID,24.9476,VALID,346,VALID,0.594531,
2011-01-22, 02:08:04,VALID,1002.58,VALID,0,VALID,97.0622,VALID,0,VALID,24.9106,VALID,349,VALID,0.832031,
2011-01-22, 02:09:04,VALID,1002.59,VALID,0,VALID,97.2453,VALID,0,VALID,24.8308,VALID,346,VALID,0.675781,
2011-01-22, 02:10:04,VALID,1002.62,VALID,0,VALID,98.8245,VALID,0,VALID,24.8132,VALID,346,VALID,0.591016,
2011-01-22, 02:11:04,VALID,1002.6,VALID,0,VALID,100.282,VALID,0,VALID,24.7353,VALID,346,VALID,0.745313,
2011-01-22, 02:12:04,VALID,1002.6,VALID,0,VALID,101.662,VALID,0,VALID,24.6574,VALID,329,VALID,0.317578,
2011-01-22, 02:13:04,VALID,1002.64,VALID,0,VALID,102.761,VALID,0,VALID,24.6398,VALID,357,VALID,0.337109,
2011-01-22, 02:14:04,VALID,1002.62,VALID,0,VALID,104,VALID,0,VALID,24.5796,VALID,356,VALID,0.469922,
2011-01-22, 02:15:04,VALID,1002.67,VALID,0,INVALID,110.71,VALID,0,VALID,24.5601,VALID,353,VALID,0.512891,
2011-01-22, 02:16:04,VALID,1002.71,VALID,0,INVALID,114.082,VALID,0,VALID,24.562,VALID,346,VALID,0.414453,
2011-01-22, 02:17:04,VALID,1002.74,VALID,0,INVALID,120.185,VALID,0,VALID,24.5406,VALID,346,VALID,0.305469,
2011-01-22, 02:18:04,VALID,1002.77,VALID,0,INVALID,128.127,VALID,0,VALID,24.4609,VALID,346,VALID,0.354688,
2011-01-22, 02:19:04,VALID,1002.8,VALID,0,INVALID,139.776,VALID,0,VALID,24.4433,VALID,348,VALID,0.519141,
2011-01-22, 02:20:04,VALID,1002.81,VALID,0,INVALID,159.482,VALID,0,VALID,24.3441,VALID,350,VALID,0.4125,
2011-01-22, 02:21:04,VALID,1002.82,VALID,0,INVALID,141.699,VALID,0,VALID,24.4043,VALID,327,VALID,0.489062,
2011-01-22, 02:22:04,VALID,1002.8,VALID,0,INVALID,133.948,VALID,0,VALID,24.4433,VALID,329,VALID,0.433203,
2011-01-22, 02:23:04,VALID,1002.81,VALID,0,INVALID,130.256,VALID,0,VALID,24.4822,VALID,339,VALID,0.65625,
2011-01-22, 02:24:04,VALID,1002.78,VALID,0,INVALID,116.478,VALID,0,VALID,24.5406,VALID,344,VALID,0.750781,
2011-01-22, 02:25:04,VALID,1002.81,VALID,0,INVALID,112.541,VALID,0,VALID,24.5777,VALID,341,VALID,0.642187,
2011-01-22, 02:26:04,VALID,1002.8,VALID,0,INVALID,111.466,VALID,0,VALID,24.6185,VALID,351,VALID,0.615625,
2011-01-22, 02:27:04,VALID,1002.84,VALID,0,INVALID,113.609,VALID,0,VALID,24.599,VALID,352,VALID,0.708594,
2011-01-22, 02:28:04,VALID,1002.82,VALID,0,INVALID,110.344,VALID,0,VALID,24.5796,VALID,354,VALID,1.51953,
2011-01-22, 02:29:04,VALID,1002.83,VALID,0,INVALID,109.162,VALID,0,VALID,24.5796,VALID,339,VALID,0.986328,
2011-01-22, 02:30:04,VALID,1002.77,VALID,0,INVALID,109.78,VALID,0,VALID,24.599,VALID,354,VALID,0.928125,
2011-01-22, 02:31:04,VALID,1002.75,VALID,0,VALID,104,VALID,0,VALID,24.6185,VALID,339,VALID,0.816016,
2011-01-22, 02:32:04,VALID,1002.73,VALID,0,VALID,104,VALID,0,VALID,24.6361,VALID,5,VALID,0.7625,
2011-01-22, 02:33:04,VALID,1002.69,VALID,0,VALID,104,VALID,0,VALID,24.6166,VALID,346,VALID,0.7875,
2011-01-22, 02:34:04,VALID,1002.68,VALID,0,VALID,104,VALID,0,VALID,24.6166,VALID,347,VALID,0.891797,
2011-01-22, 02:35:04,VALID,1002.69,VALID,0,VALID,104,VALID,0,VALID,24.6166,VALID,345,VALID,0.638672,
2011-01-22, 02:36:04,VALID,1002.7,VALID,0,VALID,104,VALID,0,VALID,24.638,VALID,343,VALID,0.910156,
2011-01-22, 02:37:04,VALID,1002.75,VALID,0,VALID,104,VALID,0,VALID,24.6574,VALID,344,VALID,0.735547,
2011-01-22, 02:38:04,VALID,1002.75,VALID,0,VALID,104,VALID,0,VALID,24.6574,VALID,353,VALID,1.23398,
2011-01-22, 02:39:04,VALID,1002.74,VALID,0,VALID,104,VALID,0,VALID,24.6964,VALID,339,VALID,0.9125,
2011-01-22, 02:40:04,VALID,1002.76,VALID,0,VALID,104,VALID,0,VALID,24.7335,VALID,355,VALID,1.11172,
2011-01-22, 02:41:04,VALID,1002.76,VALID,0,VALID,103.409,VALID,0,VALID,24.7743,VALID,345,VALID,0.886328,
2011-01-22, 02:42:04,VALID,1002.77,VALID,0,VALID,103.585,VALID,0,VALID,24.7743,VALID,349,VALID,0.55625,
2011-01-22, 02:43:04,VALID,1002.74,VALID,0,VALID,102.639,VALID,0,VALID,24.7724,VALID,348,VALID,1.13047,
2011-01-22, 02:44:04,VALID,1002.75,VALID,0,VALID,101.212,VALID,0,VALID,24.7919,VALID,348,VALID,1.34336,
2011-01-22, 02:45:04,VALID,1002.73,VALID,0,VALID,100.709,VALID,0,VALID,24.8503,VALID,354,VALID,0.735937,
2011-01-22, 02:46:04,VALID,1002.75,VALID,0,VALID,100.839,VALID,0,VALID,24.8892,VALID,349,VALID,0.553516,
2011-01-22, 02:47:04,VALID,1002.74,VALID,0,VALID,101.64,VALID,0,VALID,24.8911,VALID,349,VALID,0.427734,
2011-01-22, 02:48:04,VALID,1002.76,VALID,0,VALID,102.273,VALID,0,VALID,24.8308,VALID,349,VALID,0.596875,
2011-01-22, 02:49:04,VALID,1002.78,VALID,0,VALID,103.402,VALID,0,VALID,24.8132,VALID,335,VALID,0.635547,
2011-01-22, 02:50:04,VALID,1002.76,VALID,0,VALID,103.806,VALID,0,VALID,24.7335,VALID,359,VALID,0.558203,
2011-01-22, 02:51:04,VALID,1002.77,VALID,0,VALID,104,VALID,0,VALID,24.6945,VALID,342,VALID,0.923437,
2011-01-22, 02:52:04,VALID,1002.76,VALID,0,VALID,104,VALID,0,VALID,24.6769,VALID,348,VALID,0.787891,
2011-01-22, 02:53:04,VALID,1002.75,VALID,0,VALID,104,VALID,0,VALID,24.6769,VALID,33,VALID,0.557031,
2011-01-22, 02:54:04,VALID,1002.73,VALID,0,VALID,104,VALID,0,VALID,24.6556,VALID,348,VALID,0.714453,
2011-01-22, 02:55:04,VALID,1002.74,VALID,0,VALID,104,VALID,0,VALID,24.6556,VALID,330,VALID,0.428125,
2011-01-22, 02:56:04,VALID,1002.73,VALID,0,VALID,104,VALID,0.100563,VALID,24.6945,VALID,349,VALID,0.972656,
2011-01-22, 02:57:04,VALID,1002.69,VALID,0,VALID,104,VALID,0,VALID,24.6945,VALID,348,VALID,1.27734,
2011-01-22, 02:58:04,VALID,1002.67,VALID,0,VALID,104,VALID,0.100563,VALID,24.7335,VALID,349,VALID,1.16172,
2011-01-22, 02:59:04,VALID,1002.64,VALID,0,INVALID,110.779,VALID,0.100563,VALID,24.7529,VALID,348,VALID,0.639844,
2011-01-22, 03:00:04,VALID,1002.66,VALID,0,INVALID,113.655,VALID,0.100563,VALID,24.7335,VALID,352,VALID,0.498828,
2011-01-22, 03:01:04,VALID,1002.65,VALID,0,INVALID,114.632,VALID,0.100563,VALID,24.714,VALID,355,VALID,0.769531,
2011-01-22, 03:02:04,VALID,1002.64,VALID,0,INVALID,115.784,VALID,0.100563,VALID,24.6926,VALID,347,VALID,0.898047,
2011-01-22, 03:03:04,VALID,1002.65,VALID,0,INVALID,124,VALID,0.100563,VALID,24.6732,VALID,351,VALID,0.299609,
2011-01-22, 03:04:04,VALID,1002.65,VALID,0,INVALID,128.905,VALID,0.100563,VALID,24.6342,VALID,350,VALID,0.630859,
2011-01-22, 03:05:04,VALID,1002.66,VALID,0,INVALID,135.565,VALID,0.100563,VALID,24.6556,VALID,331,VALID,0.355469,
2011-01-22, 03:06:04,VALID,1002.69,VALID,0,INVALID,144.895,VALID,0.100563,VALID,24.6342,VALID,355,VALID,0.775391,
2011-01-22, 03:07:04,VALID,1002.68,VALID,0,INVALID,152.059,VALID,0.100563,VALID,24.6361,VALID,353,VALID,1.31602,
2011-01-22, 03:08:04,VALID,1002.68,VALID,0,INVALID,153.348,VALID,0,VALID,24.6732,VALID,352,VALID,1.21992,
2011-01-22, 03:09:04,VALID,1002.69,VALID,0,INVALID,150.503,VALID,0,VALID,24.6945,VALID,353,VALID,0.951172,
2011-01-22, 03:10:04,VALID,1002.67,VALID,0,INVALID,149.9,VALID,0,VALID,24.6945,VALID,355,VALID,0.913281,
2011-01-22, 03:11:04,VALID,1002.65,VALID,0,INVALID,153.615,VALID,0,VALID,24.7159,VALID,341,VALID,0.6875,
2011-01-22, 03:12:04,VALID,1002.63,VALID,0,INVALID,157.994,VALID,0,VALID,24.6964,VALID,359,VALID,1.02734,
2011-01-22, 03:13:04,VALID,1002.62,VALID,0,INVALID,159.062,VALID,0,VALID,24.6945,VALID,349,VALID,1.06211,
2011-01-22, 03:14:04,VALID,1002.63,VALID,0,INVALID,160.161,VALID,0,VALID,24.7353,VALID,340,VALID,0.633594,
2011-01-22, 03:15:04,VALID,1002.6,VALID,0,INVALID,155.416,VALID,0,VALID,24.7353,VALID,347,VALID,1.16367,
2011-01-22, 03:16:04,VALID,1002.6,VALID,0,INVALID,151.555,VALID,0,VALID,24.7548,VALID,348,VALID,1.33477,
2011-01-22, 03:17:04,VALID,1002.62,VALID,0,INVALID,151.143,VALID,0,VALID,24.7937,VALID,1,VALID,0.819531,
2011-01-22, 03:18:04,VALID,1002.63,VALID,0,INVALID,148.55,VALID,0,VALID,24.8132,VALID,352,VALID,1.04688,
2011-01-22, 03:19:04,VALID,1002.64,VALID,0,INVALID,148.695,VALID,0,VALID,24.8132,VALID,348,VALID,1.19336,
2011-01-22, 03:20:04,VALID,1002.7,VALID,0,INVALID,145.765,VALID,0,VALID,24.8132,VALID,355,VALID,1.43828,
2011-01-22, 03:21:04,VALID,1002.74,VALID,0,INVALID,146.223,VALID,0,VALID,24.8113,VALID,357,VALID,1.85273,
2011-01-22, 03:22:04,VALID,1002.74,VALID,0,INVALID,148.038,VALID,0,VALID,24.8132,VALID,3,VALID,1.4625,
2011-01-22, 03:23:04,VALID,1002.75,VALID,0,INVALID,152.066,VALID,0,VALID,24.7919,VALID,341,VALID,1.61563,
2011-01-22, 03:24:04,VALID,1002.67,VALID,0,INVALID,157.75,VALID,0,VALID,24.7919,VALID,345,VALID,1.42227,
2011-01-22, 03:25:04,VALID,1002.68,VALID,0,INVALID,163.563,VALID,0,VALID,24.8132,VALID,339,VALID,0.923047,
2011-01-22, 03:26:04,VALID,1002.63,VALID,0,INVALID,163.624,VALID,0,VALID,24.7724,VALID,326,VALID,0.75,
2011-01-22, 03:27:04,VALID,1002.61,VALID,0,INVALID,163.617,VALID,0,VALID,24.7919,VALID,343,VALID,1.28164,
2011-01-22, 03:28:04,VALID,1002.56,VALID,0,INVALID,163.624,VALID,0,VALID,24.7919,VALID,360,VALID,1.11484,
2011-01-22, 03:29:04,VALID,1002.51,VALID,0,INVALID,163.639,VALID,0,VALID,24.7919,VALID,314,VALID,0.821875,
2011-01-22, 03:30:04,VALID,1002.49,VALID,0,INVALID,163.647,VALID,0,VALID,24.8132,VALID,351,VALID,0.769922,
2011-01-22, 03:31:04,VALID,1002.51,VALID,0,INVALID,163.624,VALID,0,VALID,24.8346,VALID,345,VALID,1.07383,
2011-01-22, 03:32:04,VALID,1002.5,VALID,0,INVALID,163.624,VALID,0,VALID,24.8327,VALID,344,VALID,0.983203,
2011-01-22, 03:33:04,VALID,1002.49,VALID,0,INVALID,160.817,VALID,0,VALID,24.8522,VALID,329,VALID,1.10547,
2011-01-22, 03:34:04,VALID,1002.51,VALID,0,INVALID,155.85,VALID,0,VALID,24.893,VALID,348,VALID,0.830078,
2011-01-22, 03:35:04,VALID,1002.54,VALID,0,INVALID,152.486,VALID,0,VALID,24.8911,VALID,332,VALID,0.941797,
2011-01-22, 03:36:04,VALID,1002.57,VALID,0,INVALID,142.919,VALID,0,VALID,24.8716,VALID,344,VALID,0.960547,
2011-01-22, 03:37:04,VALID,1002.58,VALID,0,INVALID,135.764,VALID,0,VALID,24.8911,VALID,354,VALID,1.33281,
2011-01-22, 03:38:04,VALID,1002.55,VALID,0,INVALID,133.689,VALID,0,VALID,24.93,VALID,342,VALID,0.233594,
2011-01-22, 03:39:04,VALID,1002.52,VALID,0,INVALID,132.59,VALID,0,VALID,24.9514,VALID,28,VALID,0.623047,
2011-01-22, 03:40:04,VALID,1002.52,VALID,0,INVALID,130.965,VALID,0,VALID,24.9282,VALID,3,VALID,0.420312,
2011-01-22, 03:41:04,VALID,1002.49,VALID,0,INVALID,134.84,VALID,0,VALID,24.9068,VALID,327,VALID,0.313281,
2011-01-22, 03:42:04,VALID,1002.44,VALID,0,INVALID,140.181,VALID,0,VALID,24.8892,VALID,350,VALID,0.281641,
2011-01-22, 03:43:04,VALID,1002.41,VALID,0,INVALID,145.818,VALID,0,VALID,24.8892,VALID,345,VALID,0.908984,